#timestamp,LO_Frequency,Hit,StdDev 
1512986415.8,286046998.7,N
1512986435.7,286047002.1,N
1512986455.5,286047003.6,N
1512986475.3,286047001.8,N
1512986495.2,286047003.9,N
1512986515.0,286047001.3,N
1512986515.9,286047001.3,N
1512986535.7,286047002.8,N
1512986555.6,286047001.0,N
1512986575.4,286047000.0,N
1512986595.3,286046999.7,N
1512986615.1,286046998.3,N
1512986635.8,286047000.6,N
1512986655.7,286047002.0,N
1512986675.5,286047002.8,N
1512986695.4,286047001.1,N
1512986715.2,286046999.7,N
1512986735.0,286046999.8,N
1512986735.9,286046999.8,N
1512986755.8,286046999.8,N
1512986775.6,286047000.7,N
1512986795.5,286047000.9,N
1512986815.3,286047000.4,N
1512986835.1,286046998.3,N
1512986855.9,286047000.6,N
1512986875.7,286047000.7,N
1512986895.5,286047001.9,N
1512986915.4,286047003.1,N
1512986935.2,286047004.4,Y
1512986955.1,286047001.6,P
1512986956.0,286047001.6,P
1512986975.8,286046999.9,N
1512986995.7,286046997.4,Y
1512987015.5,286046995.6,P
1512987035.3,286046999.6,N
1512987055.2,286046999.1,N
1512987075.0,286046996.8,N
1512987075.9,286046996.8,N
1512987095.8,286046993.9,Y
1512987115.6,286046995.2,P
1512987135.4,286046993.4,P
1512987155.3,286046993.4,P
1512987175.1,286046997.6,N
1512987195.8,286046998.4,N
1512987215.7,286047000.1,N
1512987235.5,286047002.2,N
1512987255.4,286047003.8,N
1512987275.2,286047003.5,N
1512987295.0,286047001.3,N
1512987295.9,286047001.3,N
1512987315.8,286047004.7,N
1512987335.6,286047005.5,N
1512987355.5,286047005.1,N
1512987375.3,286047005.4,N
1512987395.1,286047003.4,N
1512987415.9,286047000.0,N
1512987435.7,286047002.6,N
1512987455.5,286047003.8,N
1512987475.4,286047003.2,N
1512987495.2,286047004.7,N
1512987515.1,286047004.9,N
1512987516.0,286047004.9,N
1512987535.8,286047005.0,N
1512987555.6,286047003.2,N
1512987575.5,286047003.1,N
1512987595.3,286047002.7,N
1512987615.2,286046998.1,N
1512987635.9,286046998.7,N
1512987655.7,286046999.4,N
1512987675.6,286046995.7,N
1512987695.4,286046995.4,N
1512987715.3,286046994.9,N
1512987735.1,286046999.2,N
1512987736.0,286046999.2,N
1512987755.8,286046999.3,N
1512987775.7,286047002.2,N
1512987795.5,286047001.8,N
1512987815.3,286046998.4,N
1512987835.2,286047000.5,N
1512987855.0,286046998.0,N
1512987855.9,286046998.0,N
1512987875.8,286047011.9,Y
1512987895.6,286046993.8,P
1512987915.4,286046994.6,N
1512987935.3,286046995.9,N
1512987955.1,286046997.5,N
1512987975.9,286046994.9,N
1512987995.7,286047001.1,N
1512988015.5,286047000.5,N
1512988035.4,286047000.0,N
1512988055.2,286047000.1,N
1512988075.1,286046999.9,N
1512988076.0,286046999.9,N
1512988095.8,286046998.2,N
1512988115.6,286047002.6,N
1512988135.5,286047002.5,N
1512988155.3,286047004.3,N
1512988175.1,286047000.0,N
1512988195.9,286047000.0,N
1512988215.7,286046997.4,N
1512988235.6,286046995.8,N
1512988255.4,286046995.4,N
1512988275.2,286046994.2,N
1512988295.1,286046992.1,N
1512988296.0,286046992.1,N
1512988315.8,286046992.2,N
1512988335.7,286046995.3,N
1512988355.5,286046996.6,N
1512988375.3,286046994.0,N
1512988395.2,286046991.8,N
1512988415.0,286046991.9,N
1512988415.9,286046991.9,N
1512988435.7,286046991.9,N
1512988455.6,286046990.4,N
1512988475.4,286046990.2,N
1512988495.3,286046992.6,N
1512988515.1,286046988.7,N
1512988535.8,286046990.6,N
1512988555.7,286046990.8,N
1512988575.5,286046992.5,N
1512988595.4,286046994.7,N
1512988615.2,286046993.5,N
1512988635.0,286046993.6,N
1512988635.9,286046993.6,N
1512988655.8,286046990.6,N
1512988675.6,286046992.2,N
1512988695.5,286046994.3,N
1512988715.3,286046992.7,N
1512988735.1,286046992.7,Y
1512988755.9,286047000.3,P
1512988775.7,286047000.6,N
1512988795.5,286047000.1,N
1512988815.4,286046996.5,N
1512988835.2,286046999.2,N
1512988855.1,286046999.3,N
1512988856.0,286046999.3,N
1512988875.8,286047001.1,N
1512988895.6,286047001.2,N
1512988915.5,286046998.2,N
1512988935.3,286046996.6,N
1512988955.2,286046995.7,N
1512988975.9,286046997.5,N
1512988995.7,286046996.8,N
1512989015.6,286047000.2,N
1512989035.4,286047002.2,N
1512989055.2,286047002.8,N
1512989075.1,286046999.0,N
1512989076.0,286046999.0,N
1512989095.8,286046999.1,N
1512989115.7,286047000.3,N
1512989135.5,286047002.2,N
1512989155.3,286047002.4,N
1512989175.2,286047002.9,N
1512989195.0,286047006.3,N
1512989195.9,286047006.3,N
1512989215.8,286047006.8,N
1512989235.6,286047008.8,N
1512989255.4,286047010.1,N
1512989275.3,286047006.7,N
1512989295.1,286047005.7,N
1512989315.8,286047003.0,N
1512989335.7,286047003.1,N
1512989355.5,286047002.9,N
1512989375.4,286047001.0,N
1512989395.2,286047000.4,N
1512989415.0,286046999.6,N
1512989415.9,286046999.6,N
1512989435.8,286046997.4,N
1512989455.6,286047000.4,N
1512989475.5,286047001.2,N
1512989495.3,286046996.7,N
1512989515.1,286046999.0,N
1512989535.9,286046998.7,N
1512989555.7,286046998.3,N
1512989575.5,286046995.0,N
1512989595.4,286046992.1,N
1512989615.2,286046992.1,N
1512989635.1,286046994.5,N
1512989636.0,286046994.5,N
1512989655.8,286046993.4,N
1512989675.6,286046997.3,N
1512989695.5,286046996.6,N
1512989715.3,286046996.8,N
1512989735.2,286046999.4,N
1512989755.9,286046999.4,N
1512989775.7,286046997.5,N
1512989795.6,286046997.2,N
1512989815.4,286046998.5,N
1512989835.2,286046998.7,N
1512989855.1,286046997.0,N
1512989856.0,286046997.0,N
1512989875.8,286046994.9,N
1512989895.7,286046995.5,N
1512989915.5,286046997.7,N
1512989935.3,286046997.0,N
1512989955.2,286046996.9,N
1512989975.0,286046999.6,N
1512989975.9,286046999.6,N
1512989995.8,286046995.5,N
